User: anonymous   Login
Location: Mentone
(34.5413°N, 85.5351°W)
Time: 21:10:58
(UTC-06:00)
Language:

S-56A Canister/Altair - Orbit

View from above orbital plane
View from above orbital plane
View from above satellite
View from above satellite

Ground track
Ground track

The orbit data is extracted from the following two-line orbital elements,

1    82U 61004B   18050.50327240 +.00000114 +00000-0 +12443-3 0  9991
2    82 038.8620 101.7148 1175108 306.6321 043.1802 12.25921166703615
Epoch (UTC): 19 February 2018 12:04:42
Eccentricity: 0.1175108
inclination: 38.8620°
perigee height: 633 km
apogee height: 2500 km
right ascension of ascending node: 101.7148°
argument of perigee: 306.6321°
revolutions per day: 12.25921166
mean anomaly at epoch: 43.1802°
orbit number at epoch: 70361

The dashed part of the orbit path shows where the satellite is in the earth's shadow,  

DLR